owner,sensor,date,latitude,longitude,vertical_datum,wind_speed,wind_to_direction,wind_speed_of_gust,qcFlag 
WAVCIS,ioos:station:WAVCIS:CSI09:1,2017-03-01T00:00:00Z,29.1015,-89.9782,0.0,7.58,160.0,,'11111222,11111222,99999999' 
WAVCIS,ioos:station:WAVCIS:CSI09:1,2017-03-01T01:00:00Z,29.1015,-89.9782,0.0,7.52,157.0,,'11111222,11111222,99999999' 
WAVCIS,ioos:station:WAVCIS:CSI09:1,2017-03-01T02:00:00Z,29.1015,-89.9782,0.0,7.77,162.0,,'11111222,11111222,99999999' 
WAVCIS,ioos:station:WAVCIS:CSI09:1,2017-03-01T03:00:00Z,29.1015,-89.9782,0.0,7.52,163.0,,'11111222,11111222,99999999' 
WAVCIS,ioos:station:WAVCIS:CSI09:1,2017-03-01T04:00:00Z,29.1015,-89.9782,0.0,6.812,163.0,,'11111222,11111222,99999999' 
WAVCIS,ioos:station:WAVCIS:CSI09:1,2017-03-01T05:00:00Z,29.1015,-89.9782,0.0,7.62,164.0,,'11111222,11111222,99999999' 
WAVCIS,ioos:station:WAVCIS:CSI09:1,2017-03-01T06:00:00Z,29.1015,-89.9782,0.0,8.34,165.0,,'11111222,11111222,99999999' 
WAVCIS,ioos:station:WAVCIS:CSI09:1,2017-03-01T07:00:00Z,29.1015,-89.9782,0.0,8.68,165.0,,'11111222,11111222,99999999' 
WAVCIS,ioos:station:WAVCIS:CSI09:1,2017-03-01T08:00:00Z,29.1015,-89.9782,0.0,8.37,166.0,,'11111222,11111222,99999999' 
WAVCIS,ioos:station:WAVCIS:CSI09:1,2017-03-01T09:00:00Z,29.1015,-89.9782,0.0,9.83,166.0,,'11111222,11111222,99999999' 
WAVCIS,ioos:station:WAVCIS:CSI09:1,2017-03-01T10:00:00Z,29.1015,-89.9782,0.0,9.39,168.0,,'11111222,11111222,99999999' 
WAVCIS,ioos:station:WAVCIS:CSI09:1,2017-03-01T11:00:00Z,29.1015,-89.9782,0.0,9.82,173.0,,'11111222,11111222,99999999' 
WAVCIS,ioos:station:WAVCIS:CSI09:1,2017-03-01T12:00:00Z,29.1015,-89.9782,0.0,8.22,178.0,,'11111222,11111222,99999999' 
WAVCIS,ioos:station:WAVCIS:CSI09:1,2017-03-01T13:00:00Z,29.1015,-89.9782,0.0,7.99,181.0,,'11111222,11111222,99999999' 
WAVCIS,ioos:station:WAVCIS:CSI09:1,2017-03-01T14:00:00Z,29.1015,-89.9782,0.0,8.25,180.0,,'11111222,11111222,99999999' 
WAVCIS,ioos:station:WAVCIS:CSI09:1,2017-03-01T15:00:00Z,29.1015,-89.9782,0.0,2.599,209.0,,'11111222,11111222,99999999' 
WAVCIS,ioos:station:WAVCIS:CSI09:1,2017-03-01T16:00:00Z,29.1015,-89.9782,0.0,2.398,202.0,,'11111222,11111222,99999999' 
WAVCIS,ioos:station:WAVCIS:CSI09:1,2017-03-01T17:00:00Z,29.1015,-89.9782,0.0,1.313,223.0,,'11111222,11111222,99999999' 
WAVCIS,ioos:station:WAVCIS:CSI09:1,2017-03-01T18:00:00Z,29.1015,-89.9782,0.0,2.588,182.0,,'11111222,11111222,99999999' 
WAVCIS,ioos:station:WAVCIS:CSI09:1,2017-03-01T19:00:00Z,29.1015,-89.9782,0.0,4.15,282.0,,'11111222,11111222,99999999' 
WAVCIS,ioos:station:WAVCIS:CSI09:1,2017-03-01T20:00:00Z,29.1015,-89.9782,0.0,4.463,233.0,,'11111222,11111222,99999999' 
WAVCIS,ioos:station:WAVCIS:CSI09:1,2017-03-01T21:00:00Z,29.1015,-89.9782,0.0,2.705,217.0,,'11111222,11111222,99999999' 
WAVCIS,ioos:station:WAVCIS:CSI09:1,2017-03-01T22:00:00Z,29.1015,-89.9782,0.0,2.338,207.0,,'11111222,11111222,99999999' 
WAVCIS,ioos:station:WAVCIS:CSI09:1,2017-03-01T23:00:00Z,29.1015,-89.9782,0.0,2.567,207.0,,'11111222,11111222,99999999' 
WAVCIS,ioos:station:WAVCIS:CSI09:1,2017-03-02T00:00:00Z,29.1015,-89.9782,0.0,2.483,209.0,,'11111222,11111222,99999999' 
WAVCIS,ioos:station:WAVCIS:CSI09:1,2017-03-02T01:00:00Z,29.1015,-89.9782,0.0,2.902,206.0,,'11111222,11111222,99999999' 
WAVCIS,ioos:station:WAVCIS:CSI09:1,2017-03-02T02:00:00Z,29.1015,-89.9782,0.0,3.105,206.0,,'11111222,11111222,99999999' 
WAVCIS,ioos:station:WAVCIS:CSI09:1,2017-03-02T03:00:00Z,29.1015,-89.9782,0.0,5.854,229.0,,'11111222,11111222,99999999' 
WAVCIS,ioos:station:WAVCIS:CSI09:1,2017-03-02T04:00:00Z,29.1015,-89.9782,0.0,5.75,246.0,,'11111222,11111222,99999999' 
WAVCIS,ioos:station:WAVCIS:CSI09:1,2017-03-02T05:00:00Z,29.1015,-89.9782,0.0,5.521,292.0,,'11111222,11111222,99999999' 
WAVCIS,ioos:station:WAVCIS:CSI09:1,2017-03-02T06:00:00Z,29.1015,-89.9782,0.0,14.64,26.0,,'11111222,11111222,99999999' 
WAVCIS,ioos:station:WAVCIS:CSI09:1,2017-03-02T07:00:00Z,29.1015,-89.9782,0.0,15.26,20.0,,'11111222,11111222,99999999' 
WAVCIS,ioos:station:WAVCIS:CSI09:1,2017-03-02T08:00:00Z,29.1015,-89.9782,0.0,15.25,17.0,,'11111222,11111222,99999999' 
WAVCIS,ioos:station:WAVCIS:CSI09:1,2017-03-02T09:00:00Z,29.1015,-89.9782,0.0,14.06,22.0,,'11111222,11111222,99999999' 
WAVCIS,ioos:station:WAVCIS:CSI09:1,2017-03-02T10:00:00Z,29.1015,-89.9782,0.0,15.3,22.0,,'11111222,11111222,99999999' 
WAVCIS,ioos:station:WAVCIS:CSI09:1,2017-03-02T11:00:00Z,29.1015,-89.9782,0.0,14.01,26.0,,'11111222,11111222,99999999' 
WAVCIS,ioos:station:WAVCIS:CSI09:1,2017-03-02T12:00:00Z,29.1015,-89.9782,0.0,15.97,26.0,,'11111222,11111222,99999999' 
WAVCIS,ioos:station:WAVCIS:CSI09:1,2017-03-02T13:00:00Z,29.1015,-89.9782,0.0,15.66,23.0,,'11111222,11111222,99999999' 
WAVCIS,ioos:station:WAVCIS:CSI09:1,2017-03-02T14:00:00Z,29.1015,-89.9782,0.0,14.72,27.0,,'11111222,11111222,99999999' 
WAVCIS,ioos:station:WAVCIS:CSI09:1,2017-03-02T15:00:00Z,29.1015,-89.9782,0.0,14.72,30.0,,'11111222,11111222,99999999' 
WAVCIS,ioos:station:WAVCIS:CSI09:1,2017-03-02T16:00:00Z,29.1015,-89.9782,0.0,15.16,27.0,,'11111222,11111222,99999999' 
WAVCIS,ioos:station:WAVCIS:CSI09:1,2017-03-02T17:00:00Z,29.1015,-89.9782,0.0,14.26,41.0,,'11111222,11111222,99999999' 
WAVCIS,ioos:station:WAVCIS:CSI09:1,2017-03-02T18:00:00Z,29.1015,-89.9782,0.0,13.19,36.0,,'11111222,11111222,99999999' 
WAVCIS,ioos:station:WAVCIS:CSI09:1,2017-03-02T19:00:00Z,29.1015,-89.9782,0.0,12.03,34.0,,'11111222,11111222,99999999' 
WAVCIS,ioos:station:WAVCIS:CSI09:1,2017-03-02T20:00:00Z,29.1015,-89.9782,0.0,11.31,33.0,,'11111222,11111222,99999999' 
WAVCIS,ioos:station:WAVCIS:CSI09:1,2017-03-02T21:00:00Z,29.1015,-89.9782,0.0,10.19,39.0,,'11111222,11111222,99999999' 
WAVCIS,ioos:station:WAVCIS:CSI09:1,2017-03-02T22:00:00Z,29.1015,-89.9782,0.0,9.77,28.0,,'11111222,11111222,99999999' 
WAVCIS,ioos:station:WAVCIS:CSI09:1,2017-03-02T23:00:00Z,29.1015,-89.9782,0.0,9.77,37.0,,'11111222,11111222,99999999' 
WAVCIS,ioos:station:WAVCIS:CSI09:1,2017-03-03T00:00:00Z,29.1015,-89.9782,0.0,10.07,45.0,,'11111222,11111222,99999999' 
WAVCIS,ioos:station:WAVCIS:CSI09:1,2017-03-03T01:00:00Z,29.1015,-89.9782,0.0,10.98,35.0,,'11111222,11111222,99999999' 
WAVCIS,ioos:station:WAVCIS:CSI09:1,2017-03-03T02:00:00Z,29.1015,-89.9782,0.0,12.04,32.0,,'11111222,11111222,99999999' 
WAVCIS,ioos:station:WAVCIS:CSI09:1,2017-03-03T03:00:00Z,29.1015,-89.9782,0.0,13.17,30.0,,'11111222,11111222,99999999' 
WAVCIS,ioos:station:WAVCIS:CSI09:1,2017-03-03T04:00:00Z,29.1015,-89.9782,0.0,11.6,37.0,,'11111222,11111222,99999999' 
WAVCIS,ioos:station:WAVCIS:CSI09:1,2017-03-03T05:00:00Z,29.1015,-89.9782,0.0,11.78,31.0,,'11111222,11111222,99999999' 
WAVCIS,ioos:station:WAVCIS:CSI09:1,2017-03-03T06:00:00Z,29.1015,-89.9782,0.0,11.61,35.0,,'11111222,11111222,99999999' 
WAVCIS,ioos:station:WAVCIS:CSI09:1,2017-03-03T07:00:00Z,29.1015,-89.9782,0.0,12.96,35.0,,'11111222,11111222,99999999' 
WAVCIS,ioos:station:WAVCIS:CSI09:1,2017-03-03T08:00:00Z,29.1015,-89.9782,0.0,12.87,35.0,,'11111222,11111222,99999999' 
WAVCIS,ioos:station:WAVCIS:CSI09:1,2017-03-03T09:00:00Z,29.1015,-89.9782,0.0,12.19,39.0,,'11111222,11111222,99999999' 
WAVCIS,ioos:station:WAVCIS:CSI09:1,2017-03-03T10:00:00Z,29.1015,-89.9782,0.0,13.23,36.0,,'11111222,11111222,99999999' 
WAVCIS,ioos:station:WAVCIS:CSI09:1,2017-03-03T11:00:00Z,29.1015,-89.9782,0.0,13.37,38.0,,'11111222,11111222,99999999' 
WAVCIS,ioos:station:WAVCIS:CSI09:1,2017-03-03T12:00:00Z,29.1015,-89.9782,0.0,13.26,46.0,,'11111222,11111222,99999999' 
WAVCIS,ioos:station:WAVCIS:CSI09:1,2017-03-03T13:00:00Z,29.1015,-89.9782,0.0,14.33,45.0,,'11111222,11111222,99999999' 
WAVCIS,ioos:station:WAVCIS:CSI09:1,2017-03-03T14:00:00Z,29.1015,-89.9782,0.0,13.09,48.0,,'11111222,11111222,99999999' 
WAVCIS,ioos:station:WAVCIS:CSI09:1,2017-03-03T15:00:00Z,29.1015,-89.9782,0.0,13.84,51.0,,'11111222,11111222,99999999' 
WAVCIS,ioos:station:WAVCIS:CSI09:1,2017-03-03T16:00:00Z,29.1015,-89.9782,0.0,13.54,53.0,,'11111222,11111222,99999999' 
WAVCIS,ioos:station:WAVCIS:CSI09:1,2017-03-03T17:00:00Z,29.1015,-89.9782,0.0,12.55,52.0,,'11111222,11111222,99999999' 
WAVCIS,ioos:station:WAVCIS:CSI09:1,2017-03-03T18:00:00Z,29.1015,-89.9782,0.0,11.83,63.0,,'11111222,11111222,99999999' 
WAVCIS,ioos:station:WAVCIS:CSI09:1,2017-03-03T19:00:00Z,29.1015,-89.9782,0.0,13.64,62.0,,'11111222,11111222,99999999' 
WAVCIS,ioos:station:WAVCIS:CSI09:1,2017-03-03T20:00:00Z,29.1015,-89.9782,0.0,12.46,60.0,,'11111222,11111222,99999999' 
WAVCIS,ioos:station:WAVCIS:CSI09:1,2017-03-03T21:00:00Z,29.1015,-89.9782,0.0,11.85,64.0,,'11111222,11111222,99999999' 
WAVCIS,ioos:station:WAVCIS:CSI09:1,2017-03-03T22:00:00Z,29.1015,-89.9782,0.0,10.7,62.0,,'11111222,11111222,99999999' 
WAVCIS,ioos:station:WAVCIS:CSI09:1,2017-03-03T23:00:00Z,29.1015,-89.9782,0.0,9.25,67.0,,'11111222,11111222,99999999' 
WAVCIS,ioos:station:WAVCIS:CSI09:1,2017-03-04T00:00:00Z,29.1015,-89.9782,0.0,8.45,73.0,,'11111222,11111222,99999999' 
WAVCIS,ioos:station:WAVCIS:CSI09:1,2017-03-04T01:00:00Z,29.1015,-89.9782,0.0,7.12,81.0,,'11111222,11111222,99999999' 
WAVCIS,ioos:station:WAVCIS:CSI09:1,2017-03-04T02:00:00Z,29.1015,-89.9782,0.0,7.39,79.0,,'11111222,11111222,99999999' 
WAVCIS,ioos:station:WAVCIS:CSI09:1,2017-03-04T03:00:00Z,29.1015,-89.9782,0.0,6.659,79.0,,'11111222,11111222,99999999' 
WAVCIS,ioos:station:WAVCIS:CSI09:1,2017-03-04T04:00:00Z,29.1015,-89.9782,0.0,6.589,76.0,,'11111222,11111222,99999999' 
WAVCIS,ioos:station:WAVCIS:CSI09:1,2017-03-04T05:00:00Z,29.1015,-89.9782,0.0,6.803,61.0,,'11111222,11111222,99999999' 
WAVCIS,ioos:station:WAVCIS:CSI09:1,2017-03-04T06:00:00Z,29.1015,-89.9782,0.0,10.0,51.0,,'11111222,11111222,99999999' 
WAVCIS,ioos:station:WAVCIS:CSI09:1,2017-03-04T07:00:00Z,29.1015,-89.9782,0.0,11.53,65.0,,'11111222,11111222,99999999' 
WAVCIS,ioos:station:WAVCIS:CSI09:1,2017-03-04T08:00:00Z,29.1015,-89.9782,0.0,12.14,62.0,,'11111222,11111222,99999999' 
WAVCIS,ioos:station:WAVCIS:CSI09:1,2017-03-04T09:00:00Z,29.1015,-89.9782,0.0,12.37,66.0,,'11111222,11111222,99999999' 
WAVCIS,ioos:station:WAVCIS:CSI09:1,2017-03-04T10:00:00Z,29.1015,-89.9782,0.0,11.5,69.0,,'11111222,11111222,99999999' 
WAVCIS,ioos:station:WAVCIS:CSI09:1,2017-03-04T11:00:00Z,29.1015,-89.9782,0.0,12.36,70.0,,'11111222,11111222,99999999' 
WAVCIS,ioos:station:WAVCIS:CSI09:1,2017-03-04T12:00:00Z,29.1015,-89.9782,0.0,10.94,72.0,,'11111222,11111222,99999999' 
WAVCIS,ioos:station:WAVCIS:CSI09:1,2017-03-04T13:00:00Z,29.1015,-89.9782,0.0,9.82,70.0,,'11111222,11111222,99999999' 
WAVCIS,ioos:station:WAVCIS:CSI09:1,2017-03-04T14:00:00Z,29.1015,-89.9782,0.0,9.9,76.0,,'11111222,11111222,99999999' 
WAVCIS,ioos:station:WAVCIS:CSI09:1,2017-03-04T15:00:00Z,29.1015,-89.9782,0.0,10.61,73.0,,'11111222,11111222,99999999' 
WAVCIS,ioos:station:WAVCIS:CSI09:1,2017-03-04T16:00:00Z,29.1015,-89.9782,0.0,9.59,76.0,,'11111222,11111222,99999999' 
WAVCIS,ioos:station:WAVCIS:CSI09:1,2017-03-04T17:00:00Z,29.1015,-89.9782,0.0,9.75,78.0,,'11111222,11111222,99999999' 
WAVCIS,ioos:station:WAVCIS:CSI09:1,2017-03-04T18:00:00Z,29.1015,-89.9782,0.0,10.57,82.0,,'11111222,11111222,99999999' 
WAVCIS,ioos:station:WAVCIS:CSI09:1,2017-03-04T19:00:00Z,29.1015,-89.9782,0.0,10.44,81.0,,'11111222,11111222,99999999' 
WAVCIS,ioos:station:WAVCIS:CSI09:1,2017-03-04T20:00:00Z,29.1015,-89.9782,0.0,10.13,82.0,,'11111222,11111222,99999999' 
WAVCIS,ioos:station:WAVCIS:CSI09:1,2017-03-04T21:00:00Z,29.1015,-89.9782,0.0,9.81,84.0,,'11111222,11111222,99999999' 
WAVCIS,ioos:station:WAVCIS:CSI09:1,2017-03-04T22:00:00Z,29.1015,-89.9782,0.0,9.54,81.0,,'11111222,11111222,99999999' 
WAVCIS,ioos:station:WAVCIS:CSI09:1,2017-03-04T23:00:00Z,29.1015,-89.9782,0.0,10.88,78.0,,'11111222,11111222,99999999' 
WAVCIS,ioos:station:WAVCIS:CSI09:1,2017-03-05T00:00:00Z,29.1015,-89.9782,0.0,10.64,82.0,,'11111222,11111222,99999999' 
WAVCIS,ioos:station:WAVCIS:CSI09:1,2017-03-05T01:00:00Z,29.1015,-89.9782,0.0,10.58,79.0,,'11111222,11111222,99999999' 
WAVCIS,ioos:station:WAVCIS:CSI09:1,2017-03-05T02:00:00Z,29.1015,-89.9782,0.0,9.3,78.0,,'11111222,11111222,99999999' 
WAVCIS,ioos:station:WAVCIS:CSI09:1,2017-03-05T03:00:00Z,29.1015,-89.9782,0.0,9.3,77.0,,'11111222,11111222,99999999' 
WAVCIS,ioos:station:WAVCIS:CSI09:1,2017-03-05T04:00:00Z,29.1015,-89.9782,0.0,8.36,83.0,,'11111222,11111222,99999999' 
WAVCIS,ioos:station:WAVCIS:CSI09:1,2017-03-05T05:00:00Z,29.1015,-89.9782,0.0,8.66,84.0,,'11111222,11111222,99999999' 
WAVCIS,ioos:station:WAVCIS:CSI09:1,2017-03-05T06:00:00Z,29.1015,-89.9782,0.0,9.35,82.0,,'11111222,11111222,99999999' 
WAVCIS,ioos:station:WAVCIS:CSI09:1,2017-03-05T07:00:00Z,29.1015,-89.9782,0.0,8.87,89.0,,'11111222,11111222,99999999' 
WAVCIS,ioos:station:WAVCIS:CSI09:1,2017-03-05T08:00:00Z,29.1015,-89.9782,0.0,7.58,92.0,,'11111222,11111222,99999999' 
WAVCIS,ioos:station:WAVCIS:CSI09:1,2017-03-05T09:00:00Z,29.1015,-89.9782,0.0,7.06,100.0,,'11111222,11111222,99999999' 
WAVCIS,ioos:station:WAVCIS:CSI09:1,2017-03-05T10:00:00Z,29.1015,-89.9782,0.0,8.78,113.0,,'11111222,11111222,99999999' 
WAVCIS,ioos:station:WAVCIS:CSI09:1,2017-03-05T11:00:00Z,29.1015,-89.9782,0.0,8.71,117.0,,'11111222,11111222,99999999' 
WAVCIS,ioos:station:WAVCIS:CSI09:1,2017-03-05T12:00:00Z,29.1015,-89.9782,0.0,7.76,119.0,,'11111222,11111222,99999999' 
WAVCIS,ioos:station:WAVCIS:CSI09:1,2017-03-05T13:00:00Z,29.1015,-89.9782,0.0,7.79,123.0,,'11111222,11111222,99999999' 
WAVCIS,ioos:station:WAVCIS:CSI09:1,2017-03-05T14:00:00Z,29.1015,-89.9782,0.0,8.02,122.0,,'11111222,11111222,99999999' 
WAVCIS,ioos:station:WAVCIS:CSI09:1,2017-03-05T15:00:00Z,29.1015,-89.9782,0.0,7.11,126.0,,'11111222,11111222,99999999' 
WAVCIS,ioos:station:WAVCIS:CSI09:1,2017-03-05T16:00:00Z,29.1015,-89.9782,0.0,5.901,125.0,,'11111222,11111222,99999999' 
WAVCIS,ioos:station:WAVCIS:CSI09:1,2017-03-05T17:00:00Z,29.1015,-89.9782,0.0,4.14,124.0,,'11111222,11111222,99999999' 
WAVCIS,ioos:station:WAVCIS:CSI09:1,2017-03-05T18:00:00Z,29.1015,-89.9782,0.0,3.393,93.0,,'11111222,11111222,99999999' 
WAVCIS,ioos:station:WAVCIS:CSI09:1,2017-03-05T19:00:00Z,29.1015,-89.9782,0.0,5.064,123.0,,'11111222,11111222,99999999' 
WAVCIS,ioos:station:WAVCIS:CSI09:1,2017-03-05T20:00:00Z,29.1015,-89.9782,0.0,7.71,126.0,,'11111222,11111222,99999999' 
WAVCIS,ioos:station:WAVCIS:CSI09:1,2017-03-05T21:00:00Z,29.1015,-89.9782,0.0,8.26,126.0,,'11111222,11111222,99999999' 
WAVCIS,ioos:station:WAVCIS:CSI09:1,2017-03-05T22:00:00Z,29.1015,-89.9782,0.0,9.68,107.0,,'11111222,11111222,99999999' 
WAVCIS,ioos:station:WAVCIS:CSI09:1,2017-03-05T23:00:00Z,29.1015,-89.9782,0.0,9.38,109.0,,'11111222,11111222,99999999' 
WAVCIS,ioos:station:WAVCIS:CSI09:1,2017-03-06T00:00:00Z,29.1015,-89.9782,0.0,8.94,119.0,,'11111222,11111222,99999999' 
WAVCIS,ioos:station:WAVCIS:CSI09:1,2017-03-06T01:00:00Z,29.1015,-89.9782,0.0,9.33,121.0,,'11111222,11111222,99999999' 
WAVCIS,ioos:station:WAVCIS:CSI09:1,2017-03-06T02:00:00Z,29.1015,-89.9782,0.0,9.27,118.0,,'11111222,11111222,99999999' 
WAVCIS,ioos:station:WAVCIS:CSI09:1,2017-03-06T03:00:00Z,29.1015,-89.9782,0.0,9.42,127.0,,'11111222,11111222,99999999' 
WAVCIS,ioos:station:WAVCIS:CSI09:1,2017-03-06T04:00:00Z,29.1015,-89.9782,0.0,8.33,130.0,,'11111222,11111222,99999999' 
WAVCIS,ioos:station:WAVCIS:CSI09:1,2017-03-06T05:00:00Z,29.1015,-89.9782,0.0,8.71,131.0,,'11111222,11111222,99999999' 
WAVCIS,ioos:station:WAVCIS:CSI09:1,2017-03-06T06:00:00Z,29.1015,-89.9782,0.0,9.2,138.0,,'11111222,11111222,99999999' 
WAVCIS,ioos:station:WAVCIS:CSI09:1,2017-03-06T07:00:00Z,29.1015,-89.9782,0.0,9.18,139.0,,'11111222,11111222,99999999' 
WAVCIS,ioos:station:WAVCIS:CSI09:1,2017-03-06T08:00:00Z,29.1015,-89.9782,0.0,9.94,142.0,,'11111222,11111222,99999999' 
WAVCIS,ioos:station:WAVCIS:CSI09:1,2017-03-06T09:00:00Z,29.1015,-89.9782,0.0,9.25,143.0,,'11111222,11111222,99999999' 
WAVCIS,ioos:station:WAVCIS:CSI09:1,2017-03-06T10:00:00Z,29.1015,-89.9782,0.0,8.9,142.0,,'11111222,11111222,99999999' 
WAVCIS,ioos:station:WAVCIS:CSI09:1,2017-03-06T11:00:00Z,29.1015,-89.9782,0.0,7.78,140.0,,'11111222,11111222,99999999' 
WAVCIS,ioos:station:WAVCIS:CSI09:1,2017-03-06T12:00:00Z,29.1015,-89.9782,0.0,8.28,136.0,,'11111222,11111222,99999999' 
WAVCIS,ioos:station:WAVCIS:CSI09:1,2017-03-06T13:00:00Z,29.1015,-89.9782,0.0,8.01,135.0,,'11111222,11111222,99999999' 
WAVCIS,ioos:station:WAVCIS:CSI09:1,2017-03-06T14:00:00Z,29.1015,-89.9782,0.0,9.02,135.0,,'11111222,11111222,99999999' 
WAVCIS,ioos:station:WAVCIS:CSI09:1,2017-03-06T15:00:00Z,29.1015,-89.9782,0.0,9.66,136.0,,'11111222,11111222,99999999' 
WAVCIS,ioos:station:WAVCIS:CSI09:1,2017-03-06T16:00:00Z,29.1015,-89.9782,0.0,8.91,137.0,,'11111222,11111222,99999999' 
WAVCIS,ioos:station:WAVCIS:CSI09:1,2017-03-06T17:00:00Z,29.1015,-89.9782,0.0,8.98,134.0,,'11111222,11111222,99999999' 
WAVCIS,ioos:station:WAVCIS:CSI09:1,2017-03-06T18:00:00Z,29.1015,-89.9782,0.0,9.32,133.0,,'11111222,11111222,99999999' 
WAVCIS,ioos:station:WAVCIS:CSI09:1,2017-03-06T19:00:00Z,29.1015,-89.9782,0.0,8.54,136.0,,'11111222,11111222,99999999' 
WAVCIS,ioos:station:WAVCIS:CSI09:1,2017-03-06T20:00:00Z,29.1015,-89.9782,0.0,9.25,133.0,,'11111222,11111222,99999999' 
WAVCIS,ioos:station:WAVCIS:CSI09:1,2017-03-06T21:00:00Z,29.1015,-89.9782,0.0,8.07,127.0,,'11111222,11111222,99999999' 
WAVCIS,ioos:station:WAVCIS:CSI09:1,2017-03-06T22:00:00Z,29.1015,-89.9782,0.0,8.24,124.0,,'11111222,11111222,99999999' 
WAVCIS,ioos:station:WAVCIS:CSI09:1,2017-03-06T23:00:00Z,29.1015,-89.9782,0.0,9.14,127.0,,'11111222,11111222,99999999' 
WAVCIS,ioos:station:WAVCIS:CSI09:1,2017-03-07T00:00:00Z,29.1015,-89.9782,0.0,10.18,130.0,,'11111222,11111222,99999999' 
WAVCIS,ioos:station:WAVCIS:CSI09:1,2017-03-07T01:00:00Z,29.1015,-89.9782,0.0,9.18,128.0,,'11111222,11111222,99999999' 
WAVCIS,ioos:station:WAVCIS:CSI09:1,2017-03-07T02:00:00Z,29.1015,-89.9782,0.0,10.27,132.0,,'11111222,11111222,99999999' 
WAVCIS,ioos:station:WAVCIS:CSI09:1,2017-03-07T03:00:00Z,29.1015,-89.9782,0.0,10.48,133.0,,'11111222,11111222,99999999' 
WAVCIS,ioos:station:WAVCIS:CSI09:1,2017-03-07T04:00:00Z,29.1015,-89.9782,0.0,10.4,134.0,,'11111222,11111222,99999999' 
WAVCIS,ioos:station:WAVCIS:CSI09:1,2017-03-07T05:00:00Z,29.1015,-89.9782,0.0,10.53,136.0,,'11111222,11111222,99999999' 
WAVCIS,ioos:station:WAVCIS:CSI09:1,2017-03-07T06:00:00Z,29.1015,-89.9782,0.0,10.97,141.0,,'11111222,11111222,99999999' 
WAVCIS,ioos:station:WAVCIS:CSI09:1,2017-03-07T07:00:00Z,29.1015,-89.9782,0.0,10.41,147.0,,'11111222,11111222,99999999' 
WAVCIS,ioos:station:WAVCIS:CSI09:1,2017-03-07T08:00:00Z,29.1015,-89.9782,0.0,11.51,150.0,,'11111222,11111222,99999999' 
WAVCIS,ioos:station:WAVCIS:CSI09:1,2017-03-07T09:00:00Z,29.1015,-89.9782,0.0,7.8,142.0,,'11111222,11111222,99999999' 
WAVCIS,ioos:station:WAVCIS:CSI09:1,2017-03-07T10:00:00Z,29.1015,-89.9782,0.0,7.53,158.0,,'11111222,11111222,99999999' 
WAVCIS,ioos:station:WAVCIS:CSI09:1,2017-03-07T11:00:00Z,29.1015,-89.9782,0.0,9.41,157.0,,'11111222,11111222,99999999' 
WAVCIS,ioos:station:WAVCIS:CSI09:1,2017-03-07T12:00:00Z,29.1015,-89.9782,0.0,11.33,156.0,,'11111222,11111222,99999999' 
WAVCIS,ioos:station:WAVCIS:CSI09:1,2017-03-07T13:00:00Z,29.1015,-89.9782,0.0,8.74,157.0,,'11111222,11111222,99999999' 
WAVCIS,ioos:station:WAVCIS:CSI09:1,2017-03-07T14:00:00Z,29.1015,-89.9782,0.0,8.18,161.0,,'11111222,11111222,99999999' 
WAVCIS,ioos:station:WAVCIS:CSI09:1,2017-03-07T15:00:00Z,29.1015,-89.9782,0.0,7.45,158.0,,'11111222,11111222,99999999' 
WAVCIS,ioos:station:WAVCIS:CSI09:1,2017-03-07T16:00:00Z,29.1015,-89.9782,0.0,7.67,157.0,,'11111222,11111222,99999999' 
WAVCIS,ioos:station:WAVCIS:CSI09:1,2017-03-07T17:00:00Z,29.1015,-89.9782,0.0,7.78,159.0,,'11111222,11111222,99999999' 
WAVCIS,ioos:station:WAVCIS:CSI09:1,2017-03-07T18:00:00Z,29.1015,-89.9782,0.0,6.225,158.0,,'11111222,11111222,99999999' 
WAVCIS,ioos:station:WAVCIS:CSI09:1,2017-03-07T19:00:00Z,29.1015,-89.9782,0.0,5.924,164.0,,'11111222,11111222,99999999' 
WAVCIS,ioos:station:WAVCIS:CSI09:1,2017-03-07T20:00:00Z,29.1015,-89.9782,0.0,7.77,161.0,,'11111222,11111222,99999999' 
WAVCIS,ioos:station:WAVCIS:CSI09:1,2017-03-07T21:00:00Z,29.1015,-89.9782,0.0,7.36,167.0,,'11111222,11111222,99999999' 
WAVCIS,ioos:station:WAVCIS:CSI09:1,2017-03-07T22:00:00Z,29.1015,-89.9782,0.0,5.523,168.0,,'11111222,11111222,99999999' 
WAVCIS,ioos:station:WAVCIS:CSI09:1,2017-03-07T23:00:00Z,29.1015,-89.9782,0.0,5.032,171.0,,'11111222,11111222,99999999' 
WAVCIS,ioos:station:WAVCIS:CSI09:1,2017-03-08T00:00:00Z,29.1015,-89.9782,0.0,5.472,165.0,,'11111222,11111222,99999999' 
WAVCIS,ioos:station:WAVCIS:CSI09:1,2017-03-08T01:00:00Z,29.1015,-89.9782,0.0,4.442,163.0,,'11111222,11111222,99999999' 
WAVCIS,ioos:station:WAVCIS:CSI09:1,2017-03-08T02:00:00Z,29.1015,-89.9782,0.0,5.806,167.0,,'11111222,11111222,99999999' 
WAVCIS,ioos:station:WAVCIS:CSI09:1,2017-03-08T03:00:00Z,29.1015,-89.9782,0.0,5.824,175.0,,'11111222,11111222,99999999' 
WAVCIS,ioos:station:WAVCIS:CSI09:1,2017-03-08T04:00:00Z,29.1015,-89.9782,0.0,5.676,179.0,,'11111222,11111222,99999999' 
WAVCIS,ioos:station:WAVCIS:CSI09:1,2017-03-08T05:00:00Z,29.1015,-89.9782,0.0,5.198,9.0,,'11111222,11111222,99999999' 
WAVCIS,ioos:station:WAVCIS:CSI09:1,2017-03-08T06:00:00Z,29.1015,-89.9782,0.0,4.335,31.0,,'11111222,11111222,99999999' 
WAVCIS,ioos:station:WAVCIS:CSI09:1,2017-03-08T07:00:00Z,29.1015,-89.9782,0.0,4.457,58.0,,'11111222,11111222,99999999' 
WAVCIS,ioos:station:WAVCIS:CSI09:1,2017-03-08T08:00:00Z,29.1015,-89.9782,0.0,6.468,69.0,,'11111222,11111222,99999999' 
WAVCIS,ioos:station:WAVCIS:CSI09:1,2017-03-08T09:00:00Z,29.1015,-89.9782,0.0,6.565,74.0,,'11111222,11111222,99999999' 
WAVCIS,ioos:station:WAVCIS:CSI09:1,2017-03-08T10:00:00Z,29.1015,-89.9782,0.0,3.574,79.0,,'11111222,11111222,99999999' 
WAVCIS,ioos:station:WAVCIS:CSI09:1,2017-03-08T11:00:00Z,29.1015,-89.9782,0.0,3.455,76.0,,'11111222,11111222,99999999' 
WAVCIS,ioos:station:WAVCIS:CSI09:1,2017-03-08T12:00:00Z,29.1015,-89.9782,0.0,3.363,95.0,,'11111222,11111222,99999999' 
WAVCIS,ioos:station:WAVCIS:CSI09:1,2017-03-08T13:00:00Z,29.1015,-89.9782,0.0,5.737,39.0,,'11111222,11111222,99999999' 
WAVCIS,ioos:station:WAVCIS:CSI09:1,2017-03-08T14:00:00Z,29.1015,-89.9782,0.0,6.972,50.0,,'11111222,11111222,99999999' 
WAVCIS,ioos:station:WAVCIS:CSI09:1,2017-03-08T15:00:00Z,29.1015,-89.9782,0.0,7.89,57.0,,'11111222,11111222,99999999' 
WAVCIS,ioos:station:WAVCIS:CSI09:1,2017-03-08T16:00:00Z,29.1015,-89.9782,0.0,9.13,44.0,,'11111222,11111222,99999999' 
WAVCIS,ioos:station:WAVCIS:CSI09:1,2017-03-08T17:00:00Z,29.1015,-89.9782,0.0,10.27,50.0,,'11111222,11111222,99999999' 
WAVCIS,ioos:station:WAVCIS:CSI09:1,2017-03-08T18:00:00Z,29.1015,-89.9782,0.0,9.69,55.0,,'11111222,11111222,99999999' 
WAVCIS,ioos:station:WAVCIS:CSI09:1,2017-03-08T19:00:00Z,29.1015,-89.9782,0.0,9.72,58.0,,'11111222,11111222,99999999' 
WAVCIS,ioos:station:WAVCIS:CSI09:1,2017-03-08T20:00:00Z,29.1015,-89.9782,0.0,9.23,60.0,,'11111222,11111222,99999999' 
WAVCIS,ioos:station:WAVCIS:CSI09:1,2017-03-08T21:00:00Z,29.1015,-89.9782,0.0,8.59,63.0,,'11111222,11111222,99999999' 
WAVCIS,ioos:station:WAVCIS:CSI09:1,2017-03-08T22:00:00Z,29.1015,-89.9782,0.0,7.68,73.0,,'11111222,11111222,99999999' 
WAVCIS,ioos:station:WAVCIS:CSI09:1,2017-03-08T23:00:00Z,29.1015,-89.9782,0.0,7.13,74.0,,'11111222,11111222,99999999' 
WAVCIS,ioos:station:WAVCIS:CSI09:1,2017-03-09T00:00:00Z,29.1015,-89.9782,0.0,5.986,80.0,,'11111222,11111222,99999999' 
WAVCIS,ioos:station:WAVCIS:CSI09:1,2017-03-09T01:00:00Z,29.1015,-89.9782,0.0,6.022,79.0,,'11111222,11111222,99999999' 
WAVCIS,ioos:station:WAVCIS:CSI09:1,2017-03-09T02:00:00Z,29.1015,-89.9782,0.0,6.558,76.0,,'11111222,11111222,99999999' 
WAVCIS,ioos:station:WAVCIS:CSI09:1,2017-03-09T03:00:00Z,29.1015,-89.9782,0.0,5.929,83.0,,'11111222,11111222,99999999' 
WAVCIS,ioos:station:WAVCIS:CSI09:1,2017-03-09T04:00:00Z,29.1015,-89.9782,0.0,6.717,80.0,,'11111222,11111222,99999999' 
WAVCIS,ioos:station:WAVCIS:CSI09:1,2017-03-09T05:00:00Z,29.1015,-89.9782,0.0,7.02,86.0,,'11111222,11111222,99999999' 
WAVCIS,ioos:station:WAVCIS:CSI09:1,2017-03-09T06:00:00Z,29.1015,-89.9782,0.0,5.97,89.0,,'11111222,11111222,99999999' 
WAVCIS,ioos:station:WAVCIS:CSI09:1,2017-03-09T07:00:00Z,29.1015,-89.9782,0.0,4.989,91.0,,'11111222,11111222,99999999' 